sat.trackr.live / text

‹ back to catalog

STARLINK-32145

NORAD 60154 · 2024-120V

PAYLOAD ACTIVE UNKNOWN

§ Identity

Operator
Country
US
Launch date
2024-06-27
Launch site
AFETR
Launch vehicle
Mass (kg)
RCS (m²)

Purposes: comms

External: N2YO · Heavens-Above · Gunter

§ Orbital elements

Epoch: 2026-09-21T20:51:35.830944Z

Period
93.85 min
Inclination
53.1597°
Eccentricity
0.0001395
Mean motion
15.34384867 rev/d
Perigee alt
461.8 km
Apogee alt
463.7 km
Semi-major
6,840.9 km
B*
-2.8855e-6
RAAN
125.0341°
Arg perigee
91.1673°
Mean anomaly
268.9489°
Rev number
12,646

§ Raw data

STARLINK-321451 60154U 24120V   26264.86916471 -.00000474  00000+0 -28855-5 0  99962 60154  53.1597 125.0341 0001395  91.1673 268.9489 15.34384867126463

JSON: /api/v1/satellites/60154 · /tle

For live sub-satellite position, see the globe view (requires WebGL).

§ Visibility from observer

Set your observer location to see the next 7 days of passes ≥ 10°. The values pass through the URL so the page stays shareable.

No JS? Fill the form by hand. The geolocation button needs JavaScript.